TIANLIAN 1-03

Last updated on Nov. 18, 2019, 4:21 a.m. UTC

1 38730U 12040A   19321.24841069  .00000133  00000-0  00000+0 0  9994
2 38730   0.1166 266.2847 0003930  33.0543 226.5370  1.00268570 26883
UTC
Height (km)
Latitude
Longitude
Inclination
Orbital Period
UTC large
Height (km)
Speed (km/s)
/
Latitude / Longitude
Inclination (degrees)
Orbital Period (minutes)
Azimuth
Elevation
Range (km)
Doppler Factor
iOS Compass Heading
iOS Angle

Next 30 passes for location: Hong Kong

Rise time Rise Azimuth (degrees) Set time Set Azimuth (degrees) Duration Max altitude (degrees)

No matching passes for this satellites